Wind_Speed
117 118 119 120 122 123 124 125 125 125 124 124 122 121 119 119 118 117 115 114 112 110 108 109 109 109 109 110 111 112 112 113 113 114 115 115 115 115 114 113 113 112
121 122 123 124 125 126 126 126 125 123 121 119 118 116 115 113 113 112 112 112 111 110 108 107 107 108 108 108 109 110 111 111 112 114 114 113 113 113 112 111 110 110
125 127 127 127 127 126 125 123 121 119 117 115 114 113 112 111 110 110 110 110 111 110 109 107 105 105 105 106 107 107 108 108 110 112 112 111 110 110 109 108 107 107
129 129 128 126 124 121 119 118 116 115 113 112 111 110 109 108 107 107 106 106 107 107 107 106 104 103 102 103 104 105 105 105 106 108 109 108 107 106 105 104 104 103
128 127 124 121 119 117 115 114 113 112 110 109 107 106 106 105 103 103 102 102 102 103 104 104 103 101 100 100 102 102 102 103 103 105 105 105 104 102 100 99 99 99
124 122 120 118 116 115 114 113 111 110 109 107 105 104 103 102 101 99 98 98 97 98 99 101 101 100 99 98 98 100 101 101 101 102 102 102 101 99 97 96 95 95
120 119 118 117 116 115 114 112 111 110 109 107 105 103 101 99 97 95 94 93 92 93 95 98 99 99 97 95 94 96 98 99 99 98 98 98 98 97 96 95 93 92
119 118 118 117 116 115 114 113 112 110 108 105 102 100 97 95 93 92 90 89 89 91 93 96 98 98 96 93 91 92 95 96 96 95 94 94 94 94 94 93 91 90
119 118 117 117 116 115 114 112 110 107 105 102 99 97 96 94 92 90 89 88 88 89 91 93 95 96 94 91 88 89 91 92 92 92 90 90 90 91 90 89 88 87
119 118 117 116 115 113 112 109 107 104 102 100 99 97 96 94 92 90 88 87 86 87 88 91 93 93 92 89 86 87 88 89 88 88 87 87 87 87 86 85 84 83
118 117 116 114 112 110 109 106 104 102 101 100 99 97 96 94 92 90 88 85 84 85 86 89 90 90 89 86 84 85 86 86 85 85 84 84 83 82 81 80 79 79
117 115 113 111 109 107 106 104 103 102 101 100 99 97 95 93 92 91 89 87 84 83 85 87 88 87 85 83 82 83 84 83 82 82 81 80 79 78 77 76 75 76
114 112 110 108 107 105 104 103 103 102 102 101 99 97 94 92 90 89 88 87 85 84 84 86 86 84 83 81 80 81 82 81 80 79 77 76 75 74 73 72 72 73
111 109 107 106 106 105 104 103 102 101 101 99 98 96 94 92 89 87 85 83 83 83 83 84 83 82 80 79 78 78 78 78 77 75 74 73 72 71 70 70 69 70
108 107 107 106 106 105 104 102 101 100 98 97 95 93 91 90 89 88 85 81 79 79 81 81 80 79 78 77 75 75 75 75 73 71 70 70 69 68 67 67 67 67
108 107 107 107 106 105 103 102 100 98 96 94 92 90 89 88 87 85 84 81 77 75 76 78 77 76 76 75 73 71 71 70 69 67 67 67 66 66 66 65 65 66
108 108 108 107 106 105 103 101 99 96 94 91 89 88 86 85 84 81 79 78 75 71 71 73 75 74 73 73 70 67 66 66 65 64 64 64 63 64 64 64 64 64
108 107 107 106 105 103 101 99 96 93 91 89 87 85 83 82 80 78 75 75 73 69 67 69 72 72 71 70 67 64 62 62 61 62 62 62 62 62 62 62 62 63
108 107 106 105 103 101 98 95 93 91 89 86 83 81 80 79 77 75 73 72 70 66 64 65 68 70 69 67 64 61 60 58 58 60 61 60 61 61 60 60 61 61
107 105 104 102 100 98 95 93 91 89 86 83 79 78 76 75 75 72 70 69 67 63 62 63 65 67 66 63 60 58 58 56 55 57 60 60 60 59 58 58 59 59
104 103 101 99 97 95 93 91 88 85 82 79 76 75 74 73 72 70 68 66 64 61 60 61 63 64 62 60 58 56 56 55 53 56 60 60 58 56 55 56 57 57
102 99 97 95 93 92 90 87 85 82 79 76 74 73 72 71 69 67 65 64 61 59 58 59 60 60 59 57 56 54 53 53 53 55 59 59 56 54 54 55 55 56
99 96 94 92 90 88 86 84 82 79 77 74 71 70 70 69 67 65 62 60 59 57 56 57 57 56 55 55 54 52 51 51 52 54 57 57 55 52 53 54 54 54
97 95 93 90 88 85 83 81 78 76 74 72 69 67 68 67 65 63 60 58 57 55 54 55 55 53 52 53 52 50 50 50 51 53 55 56 54 52 51 52 52 52
96 93 91 88 85 83 80 78 75 73 71 70 68 66 65 65 63 60 58 56 55 53 52 52 52 51 50 51 50 49 49 49 50 52 54 54 54 52 49 49 50 51
93 91 88 86 83 80 78 76 73 70 68 67 67 65 63 62 60 58 56 55 53 51 51 50 50 49 48 48 48 48 47 48 49 51 52 53 52 50 47 46 50 51
Wind_Direction
293 293 293 292 293 293 293 293 292 292 291 291 290 289 289 288 287 287 286 285 283 282 281 280 279 278 277 276 275 274 273 272 271 270 269 269 268 268 267 266 266 265
294 294 294 295 295 295 294 294 293 293 292 291 291 290 289 288 288 287 287 286 285 283 281 280 279 278 277 275 274 273 273 272 271 270 270 269 269 268 268 267 266 266
296 297 296 296 296 295 295 294 293 293 292 292 291 290 290 289 288 288 287 286 285 284 282 280 279 277 276 275 274 273 272 272 271 270 270 269 268 268 268 267 266 265
298 297 297 296 296 295 294 294 293 293 292 291 291 290 289 288 288 287 286 285 285 284 283 281 279 277 276 275 274 273 272 271 271 270 270 269 269 268 267 267 266 265
298 297 297 297 296 295 295 294 293 293 292 291 290 290 289 288 288 287 286 285 284 283 282 281 280 278 276 275 274 273 272 271 270 270 270 270 269 268 267 267 266 265
298 298 298 298 297 297 296 295 295 294 293 293 292 291 290 289 288 287 286 285 284 283 281 280 279 277 275 274 273 272 271 270 269 269 269 270 269 269 268 267 266 265
299 299 299 299 298 298 297 297 296 296 295 294 293 292 291 289 288 287 285 284 283 282 281 280 278 276 275 273 272 271 271 270 269 268 268 268 268 268 268 266 265 265
300 300 300 300 299 299 299 298 297 297 296 295 293 292 291 290 289 288 286 285 284 283 282 281 279 278 276 274 272 271 271 270 270 269 268 267 267 267 266 266 265 264
301 301 300 300 300 299 299 298 297 297 296 295 294 293 292 291 290 289 288 286 285 284 283 281 280 278 277 276 274 273 271 270 270 269 268 267 266 266 265 265 264 263
301 301 300 300 300 299 299 298 298 297 297 297 296 295 294 293 292 290 288 287 286 284 283 281 280 278 277 277 276 274 272 271 271 270 269 268 267 266 265 265 264 263
301 301 300 300 300 299 299 299 299 298 298 298 297 296 295 294 293 292 290 288 286 285 283 281 280 279 278 278 277 275 273 272 271 270 269 268 267 267 266 265 264 262
300 300 301 300 300 300 300 300 300 300 299 298 298 297 296 296 295 294 292 290 288 286 284 282 280 279 279 278 277 275 274 273 272 271 270 269 268 267 266 264 263 261
301 301 301 301 301 300 300 300 300 300 300 299 298 298 297 296 294 293 292 291 289 287 285 283 281 280 279 278 276 275 274 273 272 271 271 270 269 268 266 264 262 260
302 302 302 302 301 301 301 301 300 300 299 299 299 298 297 296 295 293 291 290 289 287 285 283 282 281 279 278 276 274 274 273 272 272 271 270 269 267 265 263 261 259
302 303 302 302 302 301 301 301 300 300 300 299 298 298 297 296 295 294 292 290 288 286 285 283 282 280 279 277 275 274 273 272 272 272 271 269 268 266 265 263 261 259
303 303 302 302 302 302 302 301 301 300 299 299 298 298 297 296 294 293 291 289 286 285 284 283 281 280 278 277 275 274 273 272 272 270 269 268 266 265 263 262 260 258
303 303 302 302 302 302 301 301 300 300 299 299 298 298 297 295 293 291 290 288 286 284 282 282 280 279 277 276 275 274 272 272 271 269 267 266 264 263 262 260 259 257
303 303 302 302 302 301 301 301 300 300 299 299 298 297 295 293 292 290 289 287 285 283 282 281 279 278 276 275 275 274 272 271 269 268 266 264 263 261 260 259 257 256
303 302 302 302 301 301 301 300 300 300 299 298 297 296 294 293 291 290 288 286 285 284 282 280 278 277 276 275 275 273 271 269 268 267 265 263 261 260 259 258 257 256
302 302 301 301 301 301 301 300 300 299 298 297 297 296 294 293 291 290 288 287 285 284 282 279 277 276 275 275 274 272 270 268 267 266 264 262 260 260 259 257 256 255
302 301 301 301 301 301 301 300 299 299 298 298 298 296 295 293 291 290 288 287 286 284 282 279 276 275 275 274 273 271 269 268 266 264 263 262 260 259 258 256 255 254
302 302 302 302 302 302 301 300 300 299 299 299 298 297 295 293 291 290 289 287 286 284 281 278 276 274 274 273 271 270 268 267 265 263 262 261 260 258 257 255 254 253
303 303 303 303 302 302 301 300 300 300 300 300 299 298 295 293 292 290 289 287 285 283 280 277 275 274 273 272 271 269 267 265 263 262 261 261 259 257 255 255 254 253
304 304 304 303 302 302 301 301 301 301 301 301 300 298 295 293 292 291 289 287 285 283 280 278 276 274 273 271 270 268 266 264 262 261 260 259 258 256 255 254 254 253
304 304 304 303 303 302 302 302 302 302 302 301 300 298 295 293 292 291 290 288 285 283 281 278 276 274 272 271 269 267 265 263 261 259 259 258 258 256 255 254 254 252
305 305 304 304 303 304 304 303 303 303 303 302 300 298 295 293 293 292 290 288 286 284 281 278 276 273 271 270 268 266 264 262 259 258 257 257 257 256 255 253 252 251
Height
10257 10252 10248 10242 10236 10230 10224 10218 10212 10206 10201 10195 10189 10185 10179 10172 10165 10159 10154 10151 10150 10149 10147 10143 10139 10136 10132 10128 10124 10121 10120 10119 10117 10115 10114 10114 10116 10116 10118 10120 10120 10122
10239 10233 10227 10221 10215 10208 10200 10194 10188 10182 10177 10171 10166 10161 10156 10151 10145 10140 10133 10128 10124 10123 10122 10120 10117 10114 10110 10107 10104 10101 10100 10098 10095 10093 10092 10094 10095 10094 10096 10098 10099 10102
10217 10211 10204 10198 10192 10186 10179 10172 10166 10160 10155 10150 10145 10139 10134 10130 10126 10121 10115 10109 10103 10098 10096 10096 10095 10092 10089 10086 10083 10081 10080 10078 10075 10072 10071 10074 10075 10075 10076 10077 10079 10082
10197 10190 10183 10177 10171 10165 10159 10152 10146 10140 10135 10131 10126 10120 10116 10111 10108 10103 10098 10092 10086 10079 10074 10071 10072 10071 10069 10065 10062 10061 10061 10058 10056 10052 10051 10054 10054 10055 10057 10058 10059 10062
10177 10170 10163 10156 10150 10144 10138 10132 10126 10120 10115 10111 10106 10101 10096 10092 10088 10084 10079 10074 10068 10062 10056 10051 10049 10048 10048 10045 10042 10042 10041 10038 10036 10033 10033 10035 10034 10035 10039 10039 10041 10043
10156 10149 10142 10135 10128 10122 10116 10110 10104 10098 10093 10088 10085 10080 10075 10071 10068 10064 10060 10056 10051 10046 10039 10033 10028 10027 10027 10026 10024 10022 10020 10018 10018 10016 10016 10016 10015 10016 10020 10021 10023 10024
10136 10128 10121 10114 10107 10101 10094 10088 10082 10076 10071 10067 10063 10059 10055 10051 10047 10044 10041 10037 10033 10028 10021 10014 10009 10006 10006 10007 10007 10005 10000 9998 9999 9998 9999 9999 9997 9998 10001 10002 10005 10007
10116 10109 10102 10095 10088 10081 10075 10068 10062 10057 10051 10047 10043 10038 10034 10031 10027 10024 10021 10017 10013 10009 10002 9994 9988 9985 9985 9987 9989 9987 9982 9979 9979 9980 9982 9982 9981 9982 9983 9984 9988 9991
10097 10090 10083 10077 10070 10063 10056 10050 10044 10038 10032 10027 10022 10018 10013 10010 10007 10004 10001 9997 9994 9990 9983 9976 9970 9966 9965 9968 9969 9968 9964 9962 9961 9961 9963 9964 9964 9965 9966 9968 9971 9974
10079 10072 10066 10059 10053 10045 10038 10032 10025 10019 10014 10008 10003 9998 9994 9990 9987 9984 9982 9979 9975 9971 9965 9959 9952 9948 9948 9950 9951 9949 9946 9945 9944 9944 9946 9947 9947 9948 9949 9952 9954 9956
10061 10055 10049 10042 10035 10028 10020 10013 10007 10002 9996 9990 9984 9980 9976 9971 9966 9963 9961 9960 9957 9953 9947 9941 9935 9932 9932 9933 9933 9930 9928 9927 9928 9928 9929 9930 9931 9932 9934 9936 9938 9939
10046 10039 10032 10025 10017 10010 10003 9996 9990 9984 9978 9973 9966 9961 9958 9954 9949 9944 9940 9939 9938 9934 9929 9923 9919 9917 9916 9917 9916 9912 9910 9910 9911 9912 9913 9914 9915 9916 9918 9920 9923 9923
10029 10022 10015 10007 10000 9993 9986 9980 9974 9968 9962 9956 9949 9943 9939 9936 9933 9929 9925 9920 9917 9915 9911 9906 9903 9902 9900 9900 9899 9897 9895 9895 9896 9897 9898 9899 9900 9901 9902 9904 9906 9907
10012 10005 9997 9990 9982 9976 9970 9964 9959 9953 9946 9940 9933 9927 9922 9918 9914 9912 9910 9906 9901 9897 9894 9890 9887 9886 9885 9883 9883 9882 9881 9881 9882 9883 9884 9885 9885 9886 9887 9889 9890 9892
9995 9988 9980 9973 9965 9959 9954 9948 9942 9936 9931 9925 9919 9913 9908 9903 9898 9893 9891 9890 9888 9883 9877 9874 9872 9871 9869 9868 9868 9868 9868 9868 9869 9871 9871 9870 9871 9872 9873 9874 9876 9878
9978 9972 9964 9956 9949 9942 9937 9931 9925 9920 9915 9910 9905 9899 9894 9889 9884 9879 9875 9872 9873 9871 9865 9860 9857 9856 9854 9852 9854 9855 9856 9856 9857 9858 9857 9857 9858 9858 9859 9860 9862 9864
9962 9955 9948 9939 9932 9926 9920 9915 9909 9905 9899 9895 9891 9886 9881 9875 9870 9866 9862 9857 9857 9858 9854 9848 9843 9841 9840 9839 9840 9843 9844 9844 9844 9844 9844 9844 9845 9845 9846 9847 9849 9851
9946 9939 9932 9924 9917 9911 9905 9899 9894 9890 9884 9880 9878 9873 9867 9862 9856 9852 9849 9845 9843 9843 9841 9836 9830 9826 9826 9826 9828 9830 9832 9832 9831 9830 9831 9831 9832 9832 9834 9835 9837 9839
9930 9924 9917 9910 9902 9896 9891 9885 9880 9876 9870 9866 9864 9860 9853 9847 9842 9838 9834 9831 9830 9829 9827 9823 9817 9813 9813 9815 9817 9819 9819 9820 9821 9818 9816 9818 9819 9820 9822 9824 9826 9827
9914 9909 9902 9895 9889 9882 9877 9871 9866 9861 9857 9852 9849 9845 9839 9833 9827 9823 9821 9818 9816 9816 9814 9809 9805 9801 9802 9804 9806 9807 9807 9809 9810 9806 9803 9804 9807 9808 9811 9813 9815 9817
9899 9894 9888 9881 9874 9868 9862 9856 9851 9846 9842 9838 9834 9828 9823 9818 9813 9809 9807 9804 9803 9803 9801 9796 9792 9791 9791 9793 9794 9795 9796 9797 9798 9795 9791 9792 9796 9799 9801 9802 9804 9806
9884 9879 9874 9867 9860 9853 9847 9841 9835 9831 9826 9823 9820 9813 9806 9803 9800 9796 9794 9792 9791 9790 9788 9784 9781 9780 9781 9782 9783 9784 9785 9786 9785 9783 9780 9781 9785 9789 9790 9792 9794 9796
9868 9863 9858 9852 9846 9838 9832 9826 9821 9816 9812 9808 9806 9800 9792 9788 9786 9783 9781 9780 9778 9777 9776 9773 9770 9771 9771 9771 9771 9773 9774 9774 9773 9771 9769 9770 9774 9778 9780 9782 9784 9787
9853 9847 9841 9836 9830 9824 9817 9812 9808 9803 9798 9794 9791 9787 9780 9775 9772 9770 9769 9768 9766 9765 9764 9762 9760 9761 9761 9760 9761 9762 9763 9763 9762 9761 9760 9760 9764 9768 9771 9773 9775 9777
9837 9831 9825 9819 9813 9809 9803 9797 9794 9791 9786 9780 9776 9773 9768 9763 9760 9759 9757 9755 9755 9754 9753 9751 9750 9751 9751 9750 9750 9751 9752 9752 9752 9751 9750 9751 9753 9758 9762 9765 9766 9767
9820 9814 9809 9803 9798 9794 9790 9784 9781 9779 9775 9768 9763 9759 9755 9751 9749 9748 9745 9743 9743 9743 9742 9741 9740 9740 9741 9740 9740 9741 9742 9742 9741 9741 9741 9742 9744 9749 9754 9757 9756 9757